User: anonymous   Login
Location: Saint-Palais-sur-Mer
(45.6429°N, 1.0859°W)
Time: 21:18:31
(UTC+02:00)
Language:

CUBEBUG 2 - Orbit

View from above orbital plane
View from above orbital plane
View from above satellite
View from above satellite

Ground track
Ground track

The orbit is defined by the following mean orbital elements,

1 39440U          26162.30229726 +.00000000 +00000-0 +29203-3 0 00000
2 39440  97.8900 111.2555 0058933  48.0727 312.5496 14.93713369    07
Epoch (UTC): 11 June 2026 07:15:18
Eccentricity: 0.0058933
inclination: 97.8900°
perigee height: 545 km
apogee height: 627 km
right ascension of ascending node: 111.2555°
argument of perigee: 48.0727°
revolutions per day: 14.93713369
mean anomaly at epoch: 312.5496°

The dashed part of the orbit path shows where the satellite is in the earth's shadow,  

DLR